User: anonymous   Login
Location: Hepcat Sky Observatory
(29.9800°N, 95.6500°W)
Time: 01:59:28
(UTC-05:00)
Language:

Cosmos 2151 Rocket - Orbit

View from above orbital plane
View from above orbital plane
View from above satellite
View from above satellite

Ground track
Ground track

The orbit data is extracted from the following two-line orbital elements,

1 21423U 91042B   17174.89114884 +.00000030 +00000-0 +96803-6 0  9996
2 21423 082.4940 315.1460 0016520 225.0055 134.9820 14.79694361382532
Epoch (UTC): 23 June 2017 21:23:15
Eccentricity: 0.0016520
inclination: 82.4940°
perigee height: 619 km
apogee height: 642 km
right ascension of ascending node: 315.1460°
argument of perigee: 225.0055°
revolutions per day: 14.79694361
mean anomaly at epoch: 134.9820°
orbit number at epoch: 38253

The dashed part of the orbit path shows where the satellite is in the earth's shadow,  

DLR